SCP
0 0 0 0 0 0 0 0 0 0 0 0 0 0 0 0 0 0 0 0 0 0 0 0 0 0 0 0 0 0 0 0 0 0 0 0 0 0 0 0 0 0 0 0
0 0 0 0 0 0 0 0 0 0 0 0 0 0 0 0 0 0 0 0 0 0 0 0 0 0 0 0 0 0 0 0 0 0 0 0 0 0 0 0 0 0 0 0
0 0 0 0 0 0 0 0 0 0 0 0 0 0 0 0 0 0 0 0 0 0 0 0 0 0 0 0 0 0 0 0 0 0 0 0 0 0 0 0 0 0 0 0
0 0 0 0 0 0 0 0 0 0 0 0 0 0 0 0 0 0 0 0 0 0 0 0 0 0 0 0 0 0 0 0 0 0 0 0 0 0 0 0 0 0 0 0
0 0 0 0 0 0 0 0 0 0 0 0 0 0 0 0 0 0 0 0 0 0 0 0 0 0 0 0 0 0 0 0 0 0 0 0 0 0 0 0 0 0 0 0
0 0 0 0 0 0 0 0 0 0 0 0 0 0 0 0 0 0 0 0 0 0 0 0 0 0 0 0 0 0 0 0 0 0 0 0 0 0 0 0 0 0 0 0
0 0 0 0 0 0 0 0 0 0 0 0 0 0 0 0 0 0 0 0 0 0 0 0 0 0 0 0 0 0 0 0 0 0 0 0 0 0 0 0 0 0 0 0
0 0 0 0 0 0 0 0 0 0 0 0 0 0 0 0 0 0 0 0 0 0 0 0 0 0 0 0 0 0 0 0 0 0 0 0 0 0 0 0 0 0 0 0
0 0 0 0 0 0 0 0 0 0 0 0 0 0 0 0 0 0 0 0 0 0 0 0 0 0 0 0 0 0 0 0 0 0 0 0 0 0 0 0 0 0 0 0
0 0 0 0 0 0 0 0 0 0 0 0 0 0 0 0 0 0 0 0 0 0 0 0 0 0 0 0 0 0 0 0 0 0 0 0 0 0 0 0 0 0 0 0
0 0 0 0 0 0 0 0 0 0 0 0 0 0 0 0 0 0 0 0 0 0 0 0 0 0 0 0 0 0 0 0 0 0 0 0 0 0 0 0 0 0 0 0
0 0 0 0 0 0 0 0 0 0 0 0 0 0 0 0 0 0 0 0 0 0 0 0 0 0 0 0 0 0 0 0 0 0 0 0 0 0 0 0 0 0 0 0
0 0 0 0 0 0 0 0 0 0 0 0 0 0 0 0 0 0 0 0 0 0 0 0 0 0 0 0 0 0 0 0 0 0 0 0 0 0 0 0 0 0 0 0
0 0 0 0 0 0 0 0 0 0 0 0 0 0 0 0 0 0 0 0 0 0 0 0 0 0 0 0 0 0 0 0 0 0 0 0 0 0 0 0 0 0 0 0
0 0 0 0 0 0 0 0 0 0 0 0 0 0 0 0 0 0 0 0 0 0 0 0 0 0 0 0 0 0 0 0 0 0 0 0 0 0 0 0 0 0 0 0
0 0 0 0 0 0 0 0 0 0 0 0 0 0 0 0 0 0 0 0 0 0 0 0 0 0 0 0 0 0 0 0 0 0 0 0 0 0 0 0 0 0 0 0
0 0 0 0 0 0 0 0 0 0 0 0 0 0 0 0 0 0 0 0 0 0 0 0 0 0 0 0 0 0 0 0 0 0 0 0 0 0 0 0 0 0 0 0
0 0 0 0 0 0 0 0 0 0 0 0 0 0 0 0 0 0 0 0 0 0 0 0 0 0 0 0 0 0 0 0 0 0 0 0 0 0 0 0 0 0 0 0
0 0 0 0 0 0 0 0 0 0 0 0 0 0 0 0 0 0 0 0 0 0 0 0 0 0 0 0 0 0 0 0 0 0 0 0 0 0 0 0 0 0 0 0
0 0 0 0 0 0 0 0 0 0 0 0 0 0 0 0 0 0 0 0 0 0 0 0 0 0 0 0 0 0 0 0 0 0 0 0 0 0 0 0 0 0 0 0
0 0 0 0 0 0 0 0 0 0 0 0 0 0 0 0 0 0 0 0 0 0 0 0 0 0 0 0 0 0 0 0 0 0 0 0 0 0 0 0 0 0 0 0
0 0 0 0 0 0 0 0 0 0 0 0 0 0 0 0 0 0 0 0 0 0 0 0 0 0 0 0 0 0 0 0 0 0 0 0 0 0 0 0 0 0 0 0
0 0 0 0 0 0 0 0 0 0 0 0 0 0 0 0 0 0 0 0 0 0 0 0 0 0 0 0 0 0 0 0 0 0 0 0 0 0 0 0 0 0 0 0
0 0 0 0 0 0 0 0 0 0 0 0 0 0 0 0 0 0 0 0 0 0 0 0 0 0 0 0 0 0 0 0 0 0 0 0 0 0 0 0 0 0 0 0
0 0 0 0 0 0 0 0 0 0 0 0 0 0 0 0 0 0 0 0 0 0 0 0 0 0 0 0 0 0 0 0 0 0 0 0 0 0 0 0 0 0 0 0
0 0 0 0 0 0 0 0 0 0 0 0 0 0 0 0 0 0 0 0 0 0 0 0 0 0 0 0 0 0 0 0 0 0 0 0 0 0 0 0 0 0 0 0
Wind_Speed
6 6 5 4 4 4 4 3 2 1 2 3 3 3 5 7 5 4 5 6 6 6 7 7 6 6 4 4 5 4 4 4 4 2 2 2 2 2 2 1 2 2 2 2
4 6 3 2 3 4 4 4 3 1 2 3 4 4 4 7 6 4 4 5 7 7 7 7 6 6 5 4 4 4 4 4 4 2 1 1 1 1 2 2 2 2 2 2
6 1 1 3 5 5 5 5 3 2 3 6 6 5 5 7 7 6 4 3 4 6 7 8 7 6 5 5 4 4 4 4 4 3 2 2 2 1 2 2 1 2 2 2
4 2 3 4 5 5 4 4 5 5 6 4 4 3 3 7 8 7 5 3 4 5 5 6 6 6 6 5 4 4 4 4 3 4 2 2 1 1 1 1 1 1 1 2
4 3 4 4 3 4 3 3 6 8 8 7 6 4 2 6 6 6 6 5 4 5 5 6 5 6 5 5 4 4 4 3 3 3 2 1 1 1 1 1 2 1 1 1
5 2 3 3 2 4 4 6 8 9 6 7 6 4 2 3 5 6 6 6 6 6 6 6 6 5 5 5 4 3 4 3 2 2 3 2 1 1 1 1 2 1 1 0
8 8 5 3 5 4 5 5 4 3 4 3 2 2 2 6 5 5 5 5 6 6 6 6 6 6 5 5 4 3 4 4 3 2 2 2 2 1 2 1 2 1 1 1
6 6 7 4 5 4 5 6 4 4 4 2 1 1 5 8 6 5 4 5 6 6 6 6 7 6 5 5 4 3 3 3 3 2 2 2 2 1 1 1 1 1 1 1
4 2 5 4 3 5 5 5 6 6 8 5 2 3 6 5 5 5 4 4 5 6 6 7 7 7 6 5 4 3 4 3 3 3 2 1 2 2 2 1 1 1 1 1
5 3 3 3 3 6 7 6 4 4 4 4 2 2 4 5 4 3 3 4 4 5 6 7 7 6 6 5 5 4 3 3 2 2 2 1 1 2 2 2 2 2 2 1
7 6 4 6 6 6 6 6 5 4 5 4 3 2 4 5 4 2 2 3 3 5 5 6 6 6 6 5 5 4 3 3 2 2 2 3 2 2 2 2 2 2 2 2
5 6 6 7 5 4 5 7 6 4 5 5 4 1 4 5 4 2 2 3 3 4 4 5 6 5 5 5 5 4 4 3 2 2 2 3 3 2 2 2 2 2 2 2
3 5 6 4 3 5 6 7 7 6 6 6 5 1 3 3 3 3 3 3 3 3 4 4 5 5 4 4 4 3 3 3 3 2 2 2 3 3 2 2 2 2 2 2
3 8 8 6 3 2 6 6 6 7 5 7 6 2 2 2 2 3 3 3 3 3 3 4 4 4 4 4 3 3 3 2 2 2 2 2 2 2 2 2 2 2 2 2
5 9 10 9 6 6 7 8 8 8 8 8 7 5 2 2 2 2 2 2 2 2 2 3 3 3 4 4 3 3 3 2 2 2 2 1 1 2 2 2 2 2 2 1
7 8 10 11 9 8 10 10 9 9 9 9 8 5 2 2 2 2 2 1 1 1 2 2 3 3 3 4 3 3 3 3 2 2 2 1 1 1 1 1 1 1 2 1
6 8 9 9 8 9 10 7 7 7 6 6 6 3 2 2 2 2 2 1 0 0 0 1 2 3 3 3 3 3 2 2 2 2 2 2 1 1 1 1 0 1 1 1
7 8 6 7 8 10 3 1 2 4 4 4 4 1 1 1 2 2 2 2 1 0 0 1 1 2 2 2 2 3 3 3 2 2 2 2 2 2 1 1 1 1 1 1
7 7 6 6 8 8 4 1 2 3 4 3 3 2 1 1 1 1 1 2 2 2 1 1 1 1 2 2 2 2 3 2 2 2 3 3 2 2 2 1 1 1 1 1
8 7 6 6 7 6 1 2 3 3 2 3 4 3 3 2 2 1 2 3 2 2 2 2 1 1 0 1 2 2 2 2 2 2 2 3 3 3 2 2 1 1 1 1
8 7 8 9 9 5 1 2 1 2 1 4 4 3 2 1 1 1 2 3 3 3 2 2 2 1 1 1 2 2 2 1 1 2 2 2 2 3 2 2 1 1 1 2
7 6 7 7 8 4 2 1 0 2 4 4 4 4 3 2 2 2 2 2 2 2 2 2 1 1 2 1 1 1 1 1 1 1 1 2 2 2 2 2 2 2 2 2
6 5 3 4 2 1 1 1 2 3 4 4 3 4 3 2 1 1 1 1 1 1 1 1 1 1 1 1 1 1 0 1 1 1 2 2 2 1 2 2 2 2 2 2
5 5 5 5 3 1 1 1 2 3 3 3 3 3 3 2 1 1 1 1 1 1 0 0 0 0 1 1 1 1 1 0 0 1 1 1 2 1 1 1 2 2 2 2
3 4 6 7 4 2 2 0 2 3 3 4 3 3 3 2 1 1 1 1 1 1 1 1 1 1 2 1 1 2 2 1 1 2 1 1 1 1 1 0 1 2 2 3
6 6 6 5 3 2 1 0 1 2 2 3 3 3 3 2 2 1 1 1 1 2 1 1 2 2 2 2 2 2 2 2 2 2 2 1 1 1 1 1 1 2 2 2
Wind_Direction
208 230 242 242 246 272 290 300 290 209 173 225 239 224 183 174 188 190 184 176 168 163 156 147 141 135 128 121 116 116 115 101 91 75 69 70 62 74 66 60 57 53 48 58
228 236 247 303 299 274 274 271 271 229 216 250 255 244 205 172 182 188 193 177 166 162 155 146 144 138 138 127 127 120 110 107 108 106 95 100 94 94 87 61 50 42 47 34
243 348 115 232 242 253 265 278 284 292 271 255 252 251 205 170 170 169 191 184 156 153 155 153 153 147 143 138 135 131 127 121 118 110 81 68 56 52 65 65 49 31 41 40
245 230 267 259 259 267 277 324 312 292 276 263 241 263 203 169 169 170 175 179 160 146 142 144 149 148 149 143 141 136 128 122 119 117 107 109 111 108 109 120 113 83 50 43
242 200 247 264 296 306 308 313 285 275 274 274 255 248 205 155 165 169 166 165 158 143 138 135 136 138 139 134 133 130 131 120 117 129 137 129 100 129 109 110 112 106 74 45
244 241 270 299 312 290 291 276 266 256 259 260 244 230 177 154 156 160 160 162 158 144 132 131 125 121 120 121 130 139 133 122 132 149 147 146 148 140 120 129 139 156 144 109
223 214 193 234 259 233 246 269 276 248 224 241 208 205 124 106 97 104 136 149 148 141 141 141 135 131 125 132 145 149 141 139 153 171 159 166 169 166 164 163 166 169 155 170
239 213 183 200 252 267 254 257 279 302 304 320 279 163 99 100 95 97 109 128 139 143 148 146 142 140 141 144 149 156 155 154 168 182 184 183 166 168 159 187 159 165 159 169
271 223 155 182 251 275 272 266 282 292 294 285 228 122 119 120 116 113 118 125 141 143 149 147 145 149 153 156 155 166 162 168 177 187 189 199 174 156 175 199 189 178 168 160
284 274 189 158 239 238 263 294 293 276 299 295 271 166 141 135 117 124 126 133 144 149 148 145 149 155 159 159 161 163 164 173 175 186 183 183 201 194 192 195 207 193 173 163
269 260 216 192 218 238 228 246 260 279 279 291 309 39 84 117 115 106 116 124 127 134 142 146 151 156 157 157 162 164 171 175 175 189 187 182 201 220 201 202 200 188 172 171
255 274 251 222 207 226 256 265 265 269 284 286 289 78 108 115 110 96 79 107 121 130 137 143 146 151 156 160 165 169 173 174 179 193 201 187 184 217 216 199 196 192 181 182
290 263 264 217 188 206 232 245 265 280 282 276 277 162 133 121 116 117 108 99 111 125 136 143 144 149 151 156 162 162 165 168 170 187 212 192 188 197 210 204 190 182 177 175
290 260 263 269 294 246 250 252 259 268 272 277 281 257 203 125 93 91 99 110 121 136 146 146 148 154 154 160 162 156 158 168 169 174 206 211 195 177 194 196 182 183 188 184
253 261 270 274 277 272 269 263 255 258 267 277 294 298 299 97 76 77 85 89 114 139 157 161 164 161 163 170 169 162 163 172 177 175 193 218 206 173 186 185 183 176 175 204
246 266 275 275 266 266 269 266 257 256 264 273 284 295 29 52 47 52 67 73 93 189 190 181 174 178 188 182 176 167 167 168 166 172 182 183 174 152 160 170 182 171 170 198
241 258 270 276 274 271 264 260 258 263 274 281 284 305 50 45 30 28 28 22 346 78 217 195 187 185 194 198 182 175 177 166 176 184 169 151 148 155 178 184 158 205 179 192
249 256 261 271 272 261 262 264 268 265 275 296 306 9 34 33 62 50 25 357 11 42 220 225 226 213 201 203 183 176 173 175 185 186 167 167 169 162 168 179 197 218 205 203
251 259 261 261 266 264 250 270 313 293 300 322 330 351 9 50 94 52 50 34 14 360 335 265 255 246 212 197 180 168 175 181 183 194 186 178 177 169 170 191 204 213 211 204
236 245 252 257 263 267 297 34 8 306 271 19 5 7 13 20 291 339 35 23 11 19 30 26 16 26 56 162 154 156 178 189 196 198 202 184 176 174 179 198 208 199 197 194
216 228 239 252 256 261 8 39 355 257 349 15 12 12 360 324 338 29 45 31 25 28 32 32 47 45 59 140 145 153 175 197 194 191 205 182 172 177 175 184 201 198 191 191
220 221 227 240 249 245 81 100 257 340 4 13 10 1 357 14 19 46 44 38 30 22 26 26 44 38 33 68 129 162 201 218 180 183 202 187 178 187 169 175 202 201 189 196
228 234 235 235 245 46 89 354 13 5 343 355 3 355 350 351 11 36 33 30 30 11 27 30 44 59 44 66 119 185 276 302 199 191 194 183 180 174 168 178 195 199 189 195
241 253 254 253 233 219 224 315 355 355 339 351 355 342 333 323 340 354 4 323 279 275 3 9 323 206 203 206 188 183 164 223 210 246 203 192 191 182 188 192 194 191 198 205
261 265 261 262 258 253 219 92 2 354 341 336 337 333 322 312 307 301 288 281 278 281 262 210 224 232 224 224 217 173 171 197 219 233 227 226 211 194 201 205 251 221 212 207
254 249 248 256 257 270 267 271 307 300 308 314 319 317 312 299 283 276 271 281 286 287 272 242 224 227 230 222 219 199 186 203 213 224 219 206 201 193 175 189 312 313 274 237